#timestamp,LO_Frequency,Hit 
1503954015.1,286046997.2,N
1503954016.0,286046997.2,N
1503954035.8,286046997.0,N
1503954055.6,286046995.3,N
1503954075.5,286046997.3,N
1503954095.3,286046995.2,N
1503954115.1,286046996.3,N
1503954135.9,286046995.5,N
1503954155.7,286046995.7,N
1503954175.5,286046995.8,N
1503954195.4,286046994.9,N
1503954215.2,286046993.7,P
1503954235.0,286046996.8,N
1503954235.9,286046996.8,N
1503954255.8,286046999.6,N
1503954275.6,286046998.7,N
1503954295.4,286046998.9,N
1503954315.3,286046998.0,N
1503954335.1,286046997.9,N
1503954336.0,286046997.9,N
1503954355.8,286046996.4,N
1503954375.7,286046998.3,N
1503954395.5,286047000.7,N
1503954415.3,286047001.0,N
1503954435.1,286047000.4,N
1503954455.9,286047000.7,N
1503954475.7,286046998.4,N
1503954495.5,286046997.0,N
1503954515.4,286046999.6,N
1503954535.2,286047000.8,N
1503954555.0,286047000.4,N
1503954555.9,286047000.4,N
1503954575.8,286047003.5,N
1503954595.6,286047000.4,N
1503954615.4,286047003.3,N
1503954635.3,286047006.5,P
1503954655.1,286047008.9,N
1503954656.0,286047008.9,N
1503954675.8,286047006.9,N
1503954695.7,286047006.2,N
1503954715.5,286047006.3,N
1503954735.3,286047009.1,N
1503954755.2,286047006.2,N
1503954775.9,286047008.0,N
1503954795.7,286047006.1,N
1503954815.6,286047009.0,P
1503954835.4,286047000.8,N
1503954855.2,286046999.0,N
1503954875.1,286046996.7,N
1503954876.0,286046996.7,N
1503954895.8,286046997.4,N
1503954915.6,286046996.9,N
1503954935.5,286046996.5,N
1503954955.3,286047000.4,N
1503954975.1,286046999.8,N
1503954995.8,286047004.2,N
1503955015.7,286047000.5,N
1503955035.5,286047000.1,N
1503955055.3,286047001.4,N
1503955075.2,286047001.6,N
1503955095.9,286047001.4,N
1503955115.7,286047001.7,N
1503955135.6,286047001.6,N
1503955155.4,286047001.6,N
1503955175.2,286046998.6,N
1503955195.1,286046998.9,N
1503955196.0,286046998.9,N
1503955215.8,286046999.5,N
1503955235.6,286047001.2,N
1503955255.5,286047001.0,N
1503955275.3,286047000.4,N
1503955295.1,286047000.6,N
1503955315.8,286047002.5,N
1503955335.7,286047001.3,N
1503955355.5,286047002.1,N
1503955375.3,286047001.7,N
1503955395.2,286047002.1,N
1503955415.9,286047001.5,N
1503955435.7,286047005.6,N
1503955455.6,286047006.0,N
1503955475.4,286047005.7,N
1503955495.2,286047005.1,N
1503955515.1,286047004.2,N
1503955516.0,286047004.2,N
1503955535.8,286047005.5,N
1503955555.6,286047006.0,N
1503955575.5,286047003.2,N
1503955595.3,286047001.5,N
1503955615.1,286047001.9,N
1503955635.8,286047004.3,N
1503955655.7,286047004.1,N
1503955675.5,286047001.5,N
1503955695.3,286047000.2,N
1503955715.2,286047000.5,N
1503955735.9,286046999.4,N
1503955755.7,286047000.4,N
1503955775.6,286047002.3,N
1503955795.4,286046999.7,N
1503955815.2,286047000.1,N
1503955835.1,286046998.8,N
1503955836.0,286046998.8,N
1503955855.8,286047000.2,N
1503955875.6,286047000.7,N
1503955895.5,286046998.8,N
1503955915.3,286046998.5,N
1503955935.1,286047001.0,N
1503955955.9,286047001.2,N
1503955975.7,286047000.0,N
1503955995.5,286047000.6,N
1503956015.3,286046998.2,N
1503956035.2,286046999.5,N
1503956055.0,286047000.3,N
1503956055.9,286047000.3,N
1503956075.7,286047000.8,N
1503956095.6,286047002.7,N
1503956115.4,286047007.6,P
1503956135.3,286047007.6,N
1503956155.1,286047006.3,N
1503956156.0,286047006.3,N
1503956175.8,286047005.0,N
1503956195.6,286047003.3,N
1503956215.5,286047005.2,N
1503956235.3,286047006.0,N
1503956255.1,286047003.2,N
1503956275.9,286047004.7,N
1503956295.7,286047002.9,N
1503956315.5,286047002.1,N
1503956335.4,286047002.6,N
1503956355.2,286047003.6,N
1503956375.0,286047003.3,N
1503956375.9,286047003.3,N
1503956395.8,286047005.8,P
1503956415.6,286047002.4,P
1503956435.4,286047000.5,N
1503956455.3,286046999.8,N
1503956475.1,286046999.9,N
1503956476.0,286046999.9,N
1503956495.8,286047000.8,N
1503956515.7,286046997.0,N
1503956535.5,286046995.2,N
1503956555.3,286046995.4,N
1503956575.1,286046995.2,N
1503956595.9,286046995.5,N
1503956615.7,286046994.2,N
1503956635.5,286046996.0,N
1503956655.4,286046993.3,N
1503956675.2,286046992.3,N
1503956695.0,286046993.0,N
1503956695.9,286046993.0,N
1503956715.8,286046990.4,N
1503956735.6,286046990.1,N
1503956755.4,286046992.8,N
1503956775.3,286046990.6,N
1503956795.1,286046992.1,N
1503956796.0,286046992.1,N
1503956815.8,286046996.1,N
1503956835.7,286046994.9,N
1503956855.5,286046997.3,N
1503956875.3,286046997.9,N
1503956895.1,286046997.8,N
1503956915.9,286046997.1,N
1503956935.7,286046996.8,N
1503956955.5,286046996.6,N
1503956975.4,286046995.4,N
1503956995.2,286046999.5,N
1503957015.0,286046997.1,N
1503957015.9,286046997.1,N
1503957035.8,286046996.7,N
1503957055.6,286046996.8,N
1503957075.4,286046997.1,N
1503957095.3,286046996.7,N
1503957115.1,286047000.8,N
1503957116.0,286047000.8,N
1503957135.8,286047000.1,N
1503957155.7,286046998.5,N
1503957175.5,286047001.1,N
1503957195.3,286047001.0,N
1503957215.2,286046998.1,N
1503957235.9,286046999.2,N
1503957255.7,286047002.2,N
1503957275.6,286046999.7,N
1503957295.4,286047000.4,N
1503957315.2,286047002.3,N
1503957335.0,286047001.5,N
1503957335.9,286047001.5,N
1503957355.8,286047002.4,N
1503957375.6,286047002.0,N
1503957395.4,286047004.4,N
1503957415.3,286047001.7,N
1503957435.1,286047002.1,N
1503957455.8,286047000.3,N
1503957475.7,286046998.8,N
1503957495.5,286046999.1,N
1503957515.3,286047000.5,N
1503957535.2,286046999.7,N
1503957555.9,286047004.0,N
1503957575.7,286046999.7,N
1503957595.6,286047001.6,N
